STARLINK BG

Last updated on Sun May 21 2023 00:02:05 GMT+0000 (Coordinated Universal Time)

1 56557U 23065BG 23140.18603941 -.00092808 00000+0 -54374-3 0 9990 2 56557 43.0087 48.2521 0002296 259.1996 100.8615 15.77544677 1368

Satellite not in orbit